Weather in Karamyshevo

Russia / Lipetsk Oblast     52°22′08″N   39°27′43″E
temp.,
°C
wind,
m/s
gust,
m/s
humid.,
%
clouds,
%
prec.,
mm/h
press.,
hPa
HPBL,
m
15 may, sat
sat1500:00+18sse4138995 0.8 1010326
03:00+16sse31094100 0.8 1010217
06:00+17s2596100 0.0 1010148
09:00+21ssw3670100 0.0 1011497
12:00+23sw4652100 0.3 10121098
15:00+24ssw47436 0.3 10121663
18:00+22sw47581 0.0 10121044
21:00+16sw23805 0.0 101335
16 may, sun
sun1600:00+15ssw22835 0.0 101415
03:00+13ssw11891 0.0 101410
06:00+15sse12833 0.0 101557
09:00+21sse23590 0.0 1015602
12:00+25sse24455 0.0 10152081
15:00+26sse13398 0.0 10142123
18:00+24ene1159100 0.0 101337
21:00+18e2380100 0.1 101344
17 may, mon
mon1700:00+16e238984 0.1 101342
03:00+15e387755 0.1 1013136
06:00+16e397821 0.0 1012207
09:00+22ese4954100 0.0 1012424
12:00+26se6104178 0.0 1011904
15:00+27ese614450 0.0 10102125
18:00+25se6135443 0.0 10091375
21:00+20ese61664100 0.0 1009513
18 may, tue
tue1800:00+19se5155843 0.0 1009434
03:00+15se3106997 0.0 1008222
06:00+16sse397682 0.0 1009236
09:00+22sse47635 0.0 1009697
12:00+25sse5751100 0.0 10091451
15:00+25s3551100 0.0 10081654
18:00+22ssw4868100 0.4 1008470
21:00+17sse2791100 1.1 1009221
19 may, wed
wed1900:00+16s2693100 0.1 1008140
03:00+15sse2794100 0.1 1008164
06:00+15sse41191100 0.0 1007406
09:00+15s3794100 0.7 1008546
12:00+20sw696174 0.4 10091645
15:00+20sw695980 0.8 10091616
18:00+18sw476959 0.3 1010699
21:00+14wnw2289100 0.3 101114